Location: Sawyer Lake
(45.2517°N, 88.7550°W)
Time: 02:14:47
(UTC-05:00)

Daily predictions for brighter satellites

Satellite Brightness Start Highest point End
(mag) Time Altitude Azimuth Time Altitude Azimuth Time Altitude Azimuth
CZ-2C R/B 4.0 00:07:29 41° NNW 00:07:29 41° NNW 00:10:39 10° NNW
CZ-2C R/B 3.4 00:00:36 10° NNE 00:04:26 46° NE 00:04:26 46° NE
Cosmos 2219 Rocket 3.9 00:06:05 19° W 00:08:49 28° NW 00:13:39 10° N
SL-16 R/B 2.8 00:21:36 52° NNE 00:21:36 52° NNE 00:25:51 10° NNE
Meteor 1-24 Rocket 4.2 00:16:38 10° N 00:21:25 61° N 00:21:25 61° N
Mayak 1.3 00:20:34 10° NNE 00:21:40 17° NNE 00:21:40 17° NNE
Meteor 2-5 Rocket 4.4 00:23:24 10° NNW 00:28:09 51° NW 00:28:09 51° NW
Cosmos 2154 Rocket 4.3 00:31:52 61° NNE 00:31:52 61° NNE 00:37:01 10° N
Cosmos 1943 Rocket 3.8 00:27:57 10° N 00:32:29 25° NE 00:33:00 25° ENE
ATLAS CENTAUR R/B 4.3 00:29:26 10° NW 00:29:33 11° NW 00:29:33 11° NW
Cosmos 2333 Rocket 4.3 00:36:58 16° W 00:39:42 21° NW 00:44:00 10° N
COSMOS 2455 4.1 00:49:41 10° NW 00:53:12 31° WNW 00:53:12 31° WNW
Cosmos 2237 Rocket 4.1 00:54:11 20° WNW 00:55:53 23° NW 01:00:17 10° N
Cosmos 2369 Rocket 2.9 00:50:36 10° NNW 00:55:12 50° NNE 00:55:12 50° NNE
SL-8 Rocket 4.5 01:00:16 52° NE 01:00:16 52° NE 01:05:21 10° NNE
Lacrosse 5 4.2 01:03:38 10° NW 01:07:32 22° N 01:11:27 10° NE
BREEZE-M DEB (TANK) 4.5 01:02:34 10° WNW 01:08:19 33° WNW 01:08:19 33° WNW
Cosmos 1943 4.4 01:12:12 35° ENE 01:12:12 35° ENE 01:15:46 10° NE
Cosmos 2218 Rocket 4.4 01:12:04 57° ENE 01:12:04 57° ENE 01:17:32 10° NNE
CENTAUR R/B 4.2 01:12:22 10° NW 01:17:39 30° W 01:17:39 30° W
GEOS 3 Rocket 4.4 01:21:07 48° NNE 01:21:07 48° NNE 01:25:42 10° NNW
USA 215 3.3 01:33:40 71° NW 01:33:40 71° NW 01:39:26 10° NW
ADEOS Rocket 4.3 01:35:28 10° NE 01:39:29 25° E 01:39:29 25° E
Cosmos 2366 rocket 4.1 01:56:38 68° NW 01:56:38 68° NW 02:02:26 10° N
Mayak 1.3 01:57:00 10° NNW 01:58:19 15° NW 01:58:19 15° NW
Cosmos 1727 Rocket 4.2 01:54:19 10° NNW 01:59:37 63° NW 01:59:37 63° NW
Resurs 1-4 Rocket 4.1 02:00:36 10° NE 02:04:01 17° E 02:04:35 17° E
SL-16 R/B 4.3 02:03:27 15° WNW 02:05:13 17° NW 02:08:48 10° N
BREEZE-M DEB (TANK) 4.2 02:06:14 60° E 02:06:14 60° E 02:16:10 10° ENE
Cosmos 967 Rocket 4.5 02:06:39 77° NE 02:06:39 77° NE 02:12:32 10° NE
Cosmos 371 Rocket 4.5 02:10:03 38° NNW 02:10:03 38° NNW 02:13:24 10° NNE
Cosmos 1943 Rocket 3.2 02:11:12 10° NNW 02:14:29 35° NW 02:14:29 35° NW
Cosmos 1656 Rocket 3.9 02:12:36 10° NNW 02:18:11 67° NE 02:18:11 67° NE
Meteor 1-11 4.4 02:13:49 10° N 02:18:48 70° N 02:18:48 70° N
CZ-2D R/B 3.6 02:20:38 10° NE 02:25:04 26° E 02:25:45 25° ESE
Cosmos 372 Rocket 4.4 02:21:10 10° NNW 02:26:00 59° NE 02:26:00 59° NE
Cosmos 540 Rocket 4.0 02:31:10 54° ENE 02:31:10 54° ENE 02:35:31 10° NNE
Cosmos 304 Rocket 4.4 02:34:53 54° NNE 02:34:53 54° NNE 02:38:36 10° NNE
Cosmos 1763 Rocket 4.2 02:36:04 45° NNW 02:36:04 45° NNW 02:40:12 10° NNE
Meteor 2-1 Rocket 4.3 02:39:36 68° E 02:39:37 68° E 02:45:07 10° NNE
Cosmos 2369 Rocket 4.2 02:35:27 10° NW 02:36:57 16° WNW 02:36:57 16° WNW
H-2A R/B 4.4 02:37:26 10° N 02:39:11 22° NNW 02:39:11 22° NNW
CZ-3A R/B 3.3 02:31:59 10° NW 02:42:28 72° SW 02:43:25 61° S
CBERS-1 4.1 02:40:00 10° NNE 02:44:53 68° E 02:44:53 68° E
Cosmos 1626 4.4 02:46:06 10° NNW 02:47:19 19° NNW 02:47:19 19° NNW
Cosmos 2123 Rocket 4.0 02:43:55 10° N 02:50:12 77° E 02:51:28 58° SSE
SL-08 R/B 3.7 02:51:36 59° NNW 02:51:36 59° NNW 02:55:30 10° NNW
Lacrosse 5 3.3 02:47:00 10° NW 02:51:44 37° NNE 02:56:26 10° E
Cosmos 1821 Rocket 3.8 02:51:44 74° SW 02:52:13 79° W 02:58:26 10° N
Cosmos 1943 4.4 02:54:00 29° WNW 02:54:36 30° NW 02:59:33 10° N
Cosmos 836 Rocket 4.5 02:55:08 78° NW 02:55:08 78° NW 03:00:17 10° NNE
Cosmos 1934 Rocket 3.7 03:00:37 71° SSW 03:01:20 86° W 03:07:28 10° N
Cosmos 1726 3.8 03:01:54 28° E 03:01:54 28° E 03:04:50 10° NNE
Cosmos 2098 Rocket 3.4 03:03:39 78° WNW 03:03:39 78° WNW 03:08:18 10° N
Cosmos 1125 Rocket 4.1 02:59:43 10° NNW 03:03:33 44° WNW 03:03:33 44° WNW
COBE Rocket 4.3 03:00:45 10° N 03:05:16 51° NW 03:05:16 51° NW
SL-16 R/B 2.4 03:04:42 49° SSE 03:06:33 88° ENE 03:12:48 10° NNW
USA 229 DEB 3.7 03:04:30 10° NW 03:11:34 65° WSW 03:14:06 42° S
USA 229 3.7 03:04:36 10° NW 03:11:41 65° WSW 03:14:19 40° S
Cosmos 1315 Rocket 3.5 03:09:40 10° N 03:13:36 49° ENE 03:13:44 49° E
NOSS 3-1 (A) 4.4 03:09:08 10° NW 03:16:34 65° NE 03:24:51 10° SE
Cosmos 2221 2.7 03:20:44 61° NW 03:20:44 61° NW 03:24:32 10° N
Cosmos 1605 Rocket 4.0 03:19:33 51° S 03:21:21 88° W 03:27:49 10° N
ADEOS Rocket 3.2 03:20:35 10° N 03:25:47 45° WNW 03:26:26 43° W
IRS-1C 4.1 03:22:44 10° N 03:28:03 67° WNW 03:28:50 58° WSW
Cosmos 1666 Rocket 3.6 03:25:52 10° N 03:30:20 79° E 03:31:03 61° SSE
NPP 4.0 03:25:53 10° N 03:31:02 47° WNW 03:31:42 44° W
Cosmos 1805 Rocket 3.6 03:27:22 10° NNW 03:31:26 63° WNW 03:31:26 63° WNW
UNKNOWN OBJECT B 3.7 03:30:58 10° NNE 03:34:54 46° E 03:35:51 38° SE
BREEZE-M DEB (TANK) 2.3 03:38:34 70° WNW 03:38:56 84° N 03:45:15 10° E
Cosmos 1400 Rocket 4.2 03:39:08 10° NNW 03:41:19 27° NW 03:41:19 27° NW
Resurs 1-4 Rocket 2.1 03:39:07 10° N 03:44:20 66° WNW 03:45:39 48° SW
NOSS 3-1 (C) 3.9 03:37:06 10° NW 03:44:39 78° SW 03:53:01 10° SSE
ARIANE 5 R/B 2.5 03:40:11 10° N 03:45:26 77° WNW 03:46:57 47° SSW
Cosmos 1153 Rocket 4.4 03:45:11 36° SSW 03:48:00 81° W 03:54:21 10° N
Cosmos 1833 Rocket 4.3 03:45:25 12° SSE 03:49:43 28° ESE 03:54:28 10° NE
CZ-2D R/B 3.7 03:46:53 10° NNE 03:50:51 61° E 03:52:00 41° SSE
MOS 1 Rocket 3.2 03:51:48 10° N 03:56:05 58° WNW 03:56:55 49° WSW
SL-27 R/B 2.7 03:57:47 52° NW 03:57:47 52° NW 04:00:58 10° NNE
COSMOS 2406 3.7 03:56:22 35° WSW 03:58:12 47° WNW 04:03:42 10° NNE
Sich 1 3.2 03:54:58 10° NNW 03:59:13 50° W 03:59:35 49° WSW
Cosmos 2100 Rocket 4.1 03:56:35 22° S 04:00:56 82° E 04:07:19 10° N
Meteor 2-17 Rocket 4.4 03:58:48 27° S 04:02:20 86° W 04:08:29 10° N
Cosmos 1802 Rocket 4.3 03:57:19 16° S 04:02:25 67° E 04:08:40 10° NNE
Cosmos 292 Rocket 4.1 04:01:42 41° WSW 04:02:54 51° WNW 04:07:37 10° NNE
Okean O Rocket 4.0 04:00:03 10° NE 04:03:17 20° E 04:06:29 10° SE
Cosmos 1980 Rocket 4.2 03:59:24 10° N 04:04:17 30° NE 04:09:10 10° ESE
Cosmos 1300 2.6 04:03:53 57° SW 04:04:25 66° W 04:08:14 10° N
CZ-2D R/B 2.6 04:00:15 10° N 04:05:20 45° WNW 04:07:05 34° WSW
USA 161 3.2 04:08:29 22° NE 04:08:29 22° NE 04:09:33 10° NNE
Tiangong 2 2.8 04:08:15 24° SE 04:08:15 24° SE 04:10:34 10° E
Shenzhou-11 Module 3.2 04:14:00 31° SSE 04:14:00 31° SSE 04:16:34 10° E
Cosmos 2278 3.6 04:08:46 10° NNW 04:14:27 89° WSW 04:20:06 10° SSE
Cosmos 2285 Rocket 4.5 04:11:44 29° WSW 04:14:37 46° WNW 04:20:47 10° NNE
Cosmos 773 Rocket 4.0 04:12:55 29° SSW 04:15:43 86° WNW 04:21:05 10° NNE
IRS-1D 4.3 04:11:07 10° N 04:15:49 37° WNW 04:17:40 28° WSW
Cosmos 1697 Rocket 3.3 04:13:26 10° NNW 04:19:03 58° ENE 04:24:38 10° SE
Cosmos 1455 3.5 04:16:37 10° SSE 04:20:07 38° E 04:23:38 10° NNE
Meteor 2-2 Rocket 4.3 04:17:22 23° SSW 04:21:18 73° WNW 04:27:22 10° N
Cosmos 2173 Rocket 4.0 04:17:42 19° SSW 04:22:25 77° W 04:28:50 10° N
Cosmos 1470 Rocket 3.4 04:18:41 10° NNW 04:22:59 68° W 04:26:15 17° S
MOZ.5/SAFIR/RUBIN 5/SL-8 4.3 04:23:01 30° SW 04:24:24 37° W 04:28:46 10° NNW
ADEOS II 2.6 04:24:13 10° NNE 04:29:26 60° E 04:34:36 10° S
COSMOS 2487 2.9 04:28:16 21° S 04:30:26 59° ESE 04:33:57 10° NNE
Cosmos 1633 Rocket 4.0 04:28:24 10° NNW 04:32:07 28° W 04:32:57 26° WSW
Cosmos 1515 Rocket 3.5 04:30:44 23° SSW 04:33:25 66° W 04:37:51 10° N
Lacrosse 5 1.8 04:29:57 10° NW 04:34:56 59° SW 04:39:55 10° SSE
Cosmos 1726 3.7 04:36:31 19° W 04:36:56 19° WNW 04:39:42 10° NNW
ADEOS 4.5 04:32:58 10° N 04:37:35 33° WNW 04:40:13 21° WSW
Cosmos 2082 Rocket 2.3 04:35:50 13° SSW 04:40:46 74° ESE 04:46:25 10° NNE
Cosmos 1459 Rocket 4.1 04:37:03 17° SSW 04:41:36 54° WNW 04:47:33 10° N
Cosmos 2228 Rocket 3.5 04:39:48 22° SW 04:42:16 44° WNW 04:46:32 10° N
Cosmos 2084 4.5 04:40:10 12° S 04:43:31 36° ESE 04:47:06 10° NE
Cosmos 1869 Rocket 4.4 04:40:41 10° N 04:45:05 53° ENE 04:49:25 10° SSE
SL-16 R/B 4.0 04:49:49 15° W 04:50:58 16° W 04:54:32 10° NW
CZ-4B R/B 3.8 04:52:23 10° NNE 04:57:47 58° E 05:03:03 10° S
ATLAS 2AS CENTAUR R/B 3.5 04:53:15 10° NW 05:01:19 65° NE 05:08:48 10° SE
Cosmos 1892 3.3 04:58:12 10° NNW 05:01:45 36° W 05:05:18 10° SSW
Cosmos 1656 3.9 04:56:49 10° NW 05:02:18 48° WSW 05:07:43 10° S
PSLV R/B 3.6 04:57:59 10° NNE 05:02:21 87° E 05:06:39 10° SSW
Meteor 2-3 Rocket 4.0 04:57:53 10° NNW 05:03:19 49° W 05:08:46 10° SSW
Cosmos 1869 3.8 05:00:03 10° S 05:03:57 61° E 05:07:55 10° NNE
PSLV R/B 3.9 05:00:13 10° N 05:04:22 71° WNW 05:08:28 10° SSW
Cosmos 1408 3.0 05:01:42 10° N 05:05:18 64° E 05:08:53 10° SSE
Landsat 4 3.8 05:01:56 10° SSE 05:05:40 81° ENE 05:09:27 10° NNW
Meteor 1-31 Rocket 4.4 05:03:04 10° NNE 05:06:45 36° E 05:10:24 10° SSE
Cosmos 1825 2.5 05:05:31 10° N 05:09:20 69° E 05:13:07 10° SSE
Cosmos 1371 Rocket 4.0 05:04:05 10° NNW 05:09:21 89° ENE 05:14:37 10° SSE
Cosmos 2369 4.3 05:04:44 10° NW 05:09:42 32° WSW 05:14:38 10° SSW
OE (NEXTSAT) 4.4 05:07:16 14° WSW 05:10:14 87° SSE 05:13:51 10° E
Cosmos 2322 Rocket 4.0 05:09:38 10° NNW 05:14:52 36° NE 05:20:02 10° ESE
PAYLOAD B 4.3 05:13:08 10° NNE 05:18:47 85° WNW 05:24:21 10° SSW
Cosmos 2233 Rocket 4.0 05:12:48 10° S 05:18:56 87° W 05:25:07 10° N
Cosmos 1151 Rocket 4.2 05:18:15 10° SW 05:21:48 25° WNW 05:25:23 10° NNW
Resurs 1-4 Rocket 4.2 05:22:02 10° NW 05:23:11 11° NW 05:24:20 10° WNW
Cosmos 1624 Rocket 4.0 05:19:41 10° NNW 05:24:59 82° WSW 05:30:11 10° SSE
Cosmos 1900 4.5 05:21:56 10° SSW 05:26:59 85° ESE 05:32:10 10° NE
SL-16 R/B 3.6 05:21:57 10° NNW 05:27:24 45° ENE 05:32:49 10° SE
Meteor 2-12 Rocket 4.4 05:24:54 10° SSW 05:30:55 72° W 05:37:01 10° N
Cosmos 1833 Rocket 3.1 05:27:57 10° SW 05:33:23 47° WNW 05:38:51 10° NNE
Cosmos 1680 Rocket 4.2 05:32:27 10° SW 05:37:24 39° WNW 05:42:25 10° N
